[[{"header":{"parameterUnit":"m.s-1","parameterCategory":1,"la1":30.2991,"la2":30.254,"lo1":-89.0895,"lo2":-89.0444,"dy":0.0017,"dx":0.0017,"nx":28,"ny":28,"refTime":"2024-05-02T09:00:00:Z","depth":0,"parameterNumber":2,"parameterNumberName":"U-component_of_WINDS"},"data":[0,0,0,0,0,0,0,0,0,0,0,0,0,0,0,0,0,0,0,0,0,0,0,0,0,0,0,0,0,0,0,0,0,0,0,0,0,0,0,0,0,0,0,0,0,0,0,0,0,0,0,0,0,0,0,0,0,0,-1.9084,-1.9084,0,-1.9104,-1.9104,-1.9104,-1.9089,-1.9089,-1.9088,-1.9088,-1.9109,-1.911,-1.9111,0,0,0,0,0,0,0,0,0,0,0,0,0,-1.9033,-1.9034,-1.9084,-1.9084,-1.9084,-1.9104,-1.9104,-1.9104,-1.909,-1.9089,-1.9088,-1.9087,-1.9109,-1.911,-1.9111,0,0,0,0,0,0,0,0,0,0,0,0,0,-1.9054,-1.9034,-1.9084,-1.9079,-1.9079,-1.9104,-1.9104,-1.9104,-1.909,-1.9089,-1.9088,-1.9087,-1.9108,-1.911,-1.9112,-1.9142,0,0,-1.9117,-1.9118,0,0,0,0,0,0,0,0,-1.9053,-1.9056,-1.9079,-1.9079,-1.9079,-1.9093,-1.9094,-1.9117,-1.909,-1.9086,-1.9088,-1.9086,-1.9105,-1.9107,-1.9113,-1.9143,-1.9144,-1.9117,-1.9118,-1.9119,-1.912,0,0,0,0,0,0,0,-1.9052,-1.9055,-1.9092,-1.908,-1.908,-1.9076,-1.9078,-1.9098,-1.91,-1.9086,-1.9085,-1.9087,-1.9104,-1.9111,-1.9113,-1.9145,-1.9117,-1.9119,-1.912,-1.9121,-1.9202,-1.9203,0,0,0,0,0,0,-1.905,-1.9054,-1.9091,-1.9092,-1.9063,-1.9078,-1.908,-1.909,-1.91,-1.9101,-1.9088,-1.9087,-1.9108,-1.9111,-1.9114,-1.915,-1.9119,-1.9121,-1.9122,-1.92,-1.9202,-1.9203,0,0,0,0,0,0,-1.9049,-1.9054,-1.909,-1.9073,-1.9077,-1.908,-1.9091,-1.9091,-1.9097,-1.9102,-1.9102,-1.9095,-1.9108,-1.9111,-1.9135,-1.9151,-1.9122,-1.9123,-1.9199,-1.9201,-1.9202,-1.9223,0,0,0,0,0,0,-1.9048,-1.9054,-1.9065,-1.9073,-1.9078,-1.9111,-1.9092,-1.9092,-1.91,-1.9098,-1.9108,-1.9109,-1.9107,-1.9133,-1.9137,-1.9152,-1.9125,-1.9198,-1.92,-1.9202,-1.9221,-1.9225,-1.9229,0,0,0,0,0,-1.9046,-1.907,-1.9066,-1.907,-1.9093,-1.9112,-1.9115,-1.9113,-1.9101,-1.9113,-1.9116,-1.9108,-1.9148,-1.9135,-1.914,-1.9156,-1.9197,-1.9199,-1.9202,-1.9219,-1.9224,-1.9229,0,0,0,0,0,0,-1.9064,-1.9071,-1.9066,-1.9094,-1.9102,-1.911,-1.9124,-1.9118,-1.913,-1.9128,-1.9125,-1.9127,-1.9153,-1.9157,-1.9142,-1.9187,-1.9171,-1.9174,-1.9183,-1.9188,-1.9191,-1.9189,-1.9126,0,0,0,0,0,-1.9071,-1.9086,-1.9092,-1.9115,-1.912,-1.9121,-1.913,-1.9127,-1.9136,-1.914,-1.9145,-1.9154,-1.9169,-1.9179,-1.9192,-1.9222,-1.9224,-1.9235,-1.9239,-1.9243,-1.9245,-1.9261,-1.9266,-1.9211,-1.9211,-1.9211,0,0,-1.9086,-1.9092,-1.9101,-1.9119,-1.9125,-1.9141,-1.9125,-1.9142,-1.9154,-1.9143,-1.9165,-1.917,-1.918,-1.9207,-1.9219,-1.9211,-1.9261,-1.9246,-1.9248,-1.9249,-1.9264,-1.9269,-1.9274,-1.9213,-1.9212,-1.9212,0,0,-1.9121,-1.9127,-1.9147,-1.9154,-1.9164,-1.9164,-1.9169,-1.9178,-1.918,-1.9203,-1.9195,-1.9209,-1.9234,-1.9242,-1.9249,-1.9287,-1.928,-1.9292,-1.9312,-1.9327,-1.9332,-1.9335,-1.9349,-1.9353,-1.9295,-1.9295,-1.9295,0,-1.9138,-1.9161,-1.9158,-1.9176,-1.9184,-1.9175,-1.9195,-1.9202,-1.9216,-1.9222,-1.9213,-1.9245,-1.9251,-1.928,-1.9289,-1.9295,-1.9301,-1.929,-1.9331,-1.9335,-1.9338,-1.9351,-1.9356,-1.9296,-1.9296,-1.9296,-1.9296,0,-1.9182,-1.9198,-1.9213,-1.9227,-1.9236,-1.9256,-1.9256,-1.9266,-1.9263,-1.9265,-1.9288,-1.9295,-1.931,-1.9317,-1.9314,-1.9345,-1.934,-1.9331,-1.9315,-1.9345,-1.9357,-1.9362,-1.9298,-1.9297,-1.9297,-1.9297,0,0,-1.9228,-1.924,-1.9245,-1.9251,-1.9261,-1.9274,-1.9293,-1.9307,-1.9316,-1.9326,-1.9342,-1.9364,-1.9356,-1.9364,-1.9362,-1.9376,-1.9405,-1.9365,-1.9365,-1.9372,-1.9439,-1.9445,-1.9451,-1.9401,-1.9402,-1.9402,-1.9438,0,-1.9263,-1.9296,-1.9294,-1.9324,-1.9339,-1.9331,-1.9347,-1.9355,-1.9358,-1.9371,-1.9374,-1.9389,-1.9377,-1.9382,-1.9395,-1.9399,-1.9418,-1.9396,-1.9415,-1.9416,-1.9412,-1.9457,-1.9464,-1.9497,-1.9443,-1.9444,-1.9444,0,-1.9309,-1.932,-1.9352,-1.936,-1.9366,-1.938,-1.9393,-1.9406,-1.9416,-1.9416,-1.9426,-1.9421,-1.9441,-1.9425,-1.9451,-1.9436,-1.9444,-1.9447,-1.9448,-1.945,-1.9431,-1.9459,-1.9508,-1.9513,-1.9452,-1.9451,-1.945,0,-1.9339,-1.9362,-1.9384,-1.9389,-1.9399,-1.941,-1.9414,-1.9423,-1.9431,-1.9443,-1.9449,-1.9463,-1.947,-1.9481,-1.9481,-1.9469,-1.9508,-1.9492,-1.9509,-1.9509,-1.9517,-1.9516,-1.9567,-1.9523,-1.9523,-1.9523,-1.9523,0,-1.9378,-1.9398,-1.9397,-1.9411,-1.9433,-1.9431,-1.9453,-1.9456,-1.9464,-1.9478,-1.9472,-1.9485,-1.9484,-1.9498,-1.9498,-1.952,-1.9524,-1.9525,-1.9525,-1.9525,-1.9525,-1.953,-1.9527,-1.9524,-1.9524,-1.9523,-1.9523,0,-1.9415,-1.9416,-1.9439,-1.9447,-1.9449,-1.9465,-1.9471,-1.9484,-1.9486,-1.9504,-1.9508,-1.9511,-1.9527,-1.9528,-1.9547,-1.9547,-1.9573,-1.9571,-1.957,-1.9569,-1.9586,-1.9584,-1.9641,-1.9648,-1.96,-1.96,-1.9601,0,-1.944,-1.9455,-1.9464,-1.9473,-1.9478,-1.9492,-1.9501,-1.9499,-1.9509,-1.9521,-1.9532,-1.9547,-1.9559,-1.9585,-1.9589,-1.9604,-1.9601,-1.962,-1.9603,-1.9603,-1.9601,-1.96,-1.9601,-1.9623,-1.9624,-1.9624,-1.9624,0,-1.9484,-1.9483,-1.9496,-1.9509,-1.9519,-1.9529,-1.9539,-1.9547,-1.9546,-1.9557,-1.9573,-1.9582,-1.9601,-1.9616,-1.963,-1.9635,-1.963,-1.963,-1.9634,-1.9635,-1.9634,-1.9634,-1.9578,-1.9628,-1.9628,-1.9628,-1.9627,-1.9627,-1.9516,-1.9528,-1.9536,-1.955,-1.9557,-1.9566,-1.9578,-1.9582,-1.9595,-1.9609,-1.9608,-1.9626,-1.9635,-1.9653,-1.9659,-1.9673,-1.9666,-1.9673,-1.9675,-1.9677,-1.9678,-1.9632,-1.9676,-1.9675,-1.9675,-1.9675,-1.9675,0,-1.9559,-1.9563,-1.9576,-1.9589,-1.9601,-1.9594,-1.9604,-1.9614,-1.963,-1.9638,-1.965,-1.9669,-1.9683,-1.9688,-1.9703,-1.9713,-1.9711,-1.9717,-1.9716,-1.9717,-1.9683,-1.9677,-1.9718,-1.9718,-1.9718,-1.9718,-1.9718,-1.9718,-1.9583,-1.9604,-1.9604,-1.9628,-1.9633,-1.965,-1.9656,-1.9664,-1.9671,-1.9692,-1.9704,-1.9707,-1.9714,-1.9729,-1.9742,-1.9743,-1.9749,-1.9756,-1.9756,-1.9724,-1.972,-1.9715,-1.971,-1.9757,-1.9757,-1.9789,-1.9789,-1.9789]},{"header":{"parameterUnit":"m.s-1","parameterCategory":1,"la1":30.2991,"la2":30.254,"lo1":-89.0895,"lo2":-89.0444,"dy":0.0017,"dx":0.0017,"nx":28,"ny":28,"refTime":"2024-05-02T09:00:00:Z","depth":0,"parameterNumber":3,"parameterNumberName":"V-component_of_WINDS"},"data":[0,0,0,0,0,0,0,0,0,0,0,0,0,0,0,0,0,0,0,0,0,0,0,0,0,0,0,0,0,0,0,0,0,0,0,0,0,0,0,0,0,0,0,0,0,0,0,0,0,0,0,0,0,0,0,0,0,0,4.0319,4.0319,0,4.0331,4.0331,4.0331,4.0284,4.0282,4.0281,4.028,4.029,4.0291,4.0293,0,0,0,0,0,0,0,0,0,0,0,0,0,4.0255,4.0257,4.0319,4.0319,4.032,4.0331,4.0331,4.0331,4.0284,4.0282,4.0281,4.0279,4.0289,4.0291,4.0293,0,0,0,0,0,0,0,0,0,0,0,0,0,4.0276,4.0257,4.0319,4.0298,4.0296,4.0331,4.0331,4.0331,4.0284,4.0282,4.028,4.0278,4.0288,4.0291,4.0293,4.0349,0,0,4.03,4.0301,0,0,0,0,0,0,0,0,4.0275,4.0279,4.0301,4.0299,4.0297,4.0304,4.0312,4.0337,4.0285,4.0289,4.028,4.0277,4.0296,4.0297,4.0304,4.0349,4.035,4.03,4.0302,4.0303,4.0303,0,0,0,0,0,0,0,4.0274,4.0278,4.0324,4.0301,4.0299,4.0287,4.0287,4.0316,4.0304,4.0288,4.0285,4.0287,4.0294,4.0302,4.0304,4.035,4.03,4.0302,4.0304,4.0305,4.0442,4.0444,0,0,0,0,0,0,4.0275,4.0277,4.0323,4.0324,4.0281,4.029,4.029,4.0304,4.0303,4.0301,4.0289,4.0285,4.0299,4.0301,4.0304,4.0369,4.0303,4.0305,4.0306,4.044,4.0442,4.0445,0,0,0,0,0,0,4.0274,4.028,4.0323,4.03,4.0304,4.0293,4.0308,4.0305,4.0312,4.0304,4.0301,4.0299,4.0297,4.0301,4.0338,4.0369,4.0306,4.0308,4.0437,4.044,4.0444,4.0501,0,0,0,0,0,0,4.0273,4.028,4.0301,4.0301,4.0306,4.0358,4.031,4.0307,4.0317,4.0312,4.0312,4.031,4.0296,4.0335,4.0341,4.0371,4.031,4.0434,4.0438,4.0442,4.0496,4.0506,4.0514,0,0,0,0,0,4.0271,4.0317,4.0303,4.0309,4.0332,4.0359,4.0362,4.0345,4.0319,4.0341,4.0335,4.031,4.0365,4.0339,4.0345,4.0377,4.0432,4.0437,4.0442,4.0492,4.0504,4.0514,0,0,0,0,0,0,4.032,4.0316,4.0301,4.0348,4.0355,4.0351,4.0377,4.0358,4.0372,4.0366,4.0344,4.0345,4.0386,4.0385,4.0357,4.0431,4.0394,4.04,4.043,4.0441,4.045,4.0449,4.0312,0,0,0,0,0,4.0337,4.036,4.0355,4.0397,4.0401,4.0389,4.04,4.0387,4.0392,4.0395,4.0392,4.0398,4.0416,4.0428,4.0445,4.0496,4.0495,4.0521,4.053,4.0537,4.0543,4.0569,4.0581,4.0461,4.0461,4.0461,0,0,4.0371,4.0372,4.0387,4.0407,4.041,4.0434,4.0392,4.0418,4.0435,4.0398,4.0434,4.0432,4.0437,4.0482,4.0501,4.0482,4.0576,4.0543,4.0549,4.0551,4.0576,4.0587,4.0597,4.0465,4.0464,4.0464,0,0,4.0446,4.0449,4.0484,4.0489,4.0495,4.0487,4.0496,4.0496,4.0493,4.0529,4.0501,4.0521,4.0554,4.0558,4.0565,4.0643,4.062,4.0649,4.0695,4.0721,4.0731,4.0739,4.0766,4.0776,4.0654,4.0654,4.0655,0,4.0487,4.0523,4.0505,4.0534,4.0543,4.0511,4.0547,4.0552,4.0563,4.057,4.0549,4.0589,4.0591,4.0636,4.0655,4.0661,4.067,4.0648,4.0731,4.0739,4.0746,4.0772,4.0782,4.0658,4.0657,4.0657,4.0657,0,4.0573,4.0598,4.0626,4.0638,4.0651,4.0683,4.067,4.0684,4.067,4.0664,4.07,4.0701,4.0717,4.0727,4.0713,4.077,4.0758,4.0735,4.0697,4.0761,4.0785,4.0795,4.0663,4.0661,4.066,4.066,0,0,4.0678,4.0682,4.0692,4.0697,4.0702,4.0721,4.0752,4.0768,4.0781,4.079,4.0815,4.0843,4.0821,4.0829,4.0815,4.0839,4.09,4.0812,4.0812,4.0828,4.0963,4.0981,4.0992,4.0886,4.0887,4.0889,4.0962,0,4.0751,4.0805,4.079,4.0843,4.0865,4.0836,4.0863,4.0869,4.0864,4.0882,4.0876,4.0897,4.0867,4.0871,4.0893,4.0888,4.0927,4.0882,4.0908,4.0909,4.0907,4.1005,4.1023,4.1093,4.0972,4.0973,4.0974,0,4.0843,4.0857,4.0912,4.0914,4.0923,4.0947,4.0961,4.0979,4.0985,4.098,4.0989,4.0971,4.1001,4.0964,4.1004,4.0974,4.0984,4.0983,4.0985,4.0987,4.0945,4.1008,4.1115,4.1125,4.0989,4.0988,4.0987,0,4.0914,4.0946,4.0984,4.0989,4.0992,4.101,4.1012,4.1016,4.1027,4.1039,4.1046,4.1061,4.1069,4.1082,4.1068,4.1042,4.1111,4.1072,4.1107,4.1107,4.1122,4.1121,4.1231,4.1129,4.1129,4.1129,4.1129,0,4.0997,4.1032,4.1016,4.1038,4.1077,4.1059,4.1098,4.1096,4.11,4.1122,4.1097,4.1118,4.1099,4.1118,4.1108,4.1143,4.1147,4.1143,4.114,4.1145,4.1146,4.1151,4.1145,4.1132,4.1131,4.113,4.113,0,4.1082,4.1073,4.1112,4.1112,4.1112,4.1141,4.114,4.1161,4.1155,4.1183,4.1188,4.1179,4.12,4.1188,4.1209,4.1202,4.1248,4.1238,4.1246,4.1243,4.1279,4.1275,4.1395,4.141,4.1299,4.13,4.1301,0,4.1135,4.1162,4.1165,4.1178,4.1182,4.1204,4.1215,4.1199,4.1212,4.1221,4.1241,4.126,4.1274,4.131,4.1304,4.1321,4.1311,4.1352,4.1313,4.1318,4.1311,4.131,4.1312,4.1359,4.1361,4.1362,4.1363,0,4.1231,4.1225,4.1243,4.1259,4.1274,4.1286,4.1296,4.1308,4.1292,4.1307,4.1329,4.1341,4.1363,4.1382,4.1396,4.1398,4.1378,4.1375,4.1384,4.1389,4.1393,4.1391,4.1267,4.1372,4.1371,4.137,4.137,4.137,4.1301,4.1324,4.133,4.135,4.1356,4.1366,4.1386,4.1383,4.1401,4.1418,4.1408,4.1433,4.1439,4.1456,4.146,4.1479,4.1463,4.1475,4.1479,4.1482,4.1487,4.139,4.1482,4.1481,4.1481,4.1481,4.1481,0,4.1395,4.1398,4.1417,4.1432,4.1448,4.1429,4.1439,4.1454,4.1477,4.1484,4.1499,4.1524,4.1543,4.154,4.1556,4.1573,4.1564,4.1578,4.1576,4.1577,4.1501,4.1491,4.1585,4.1585,4.1585,4.1585,4.1585,4.1584,4.1446,4.1483,4.1478,4.1517,4.1519,4.1544,4.1552,4.1561,4.1566,4.1596,4.1612,4.1609,4.1612,4.1629,4.1646,4.1644,4.1651,4.1668,4.1664,4.1592,4.1582,4.1572,4.1563,4.167,4.167,4.1738,4.1739,4.1739]}]]